Year,Month,Day,Hour,Minute,Value (Times are PST for temperature in C)
2012,06,28,00,00,12.30
2012,06,28,00,01,12.30
2012,06,28,00,02,12.30
2012,06,28,00,03,12.30
2012,06,28,00,04,12.30
2012,06,28,00,05,12.20
2012,06,28,00,06,12.20
2012,06,28,00,07,12.20
2012,06,28,00,08,12.20
2012,06,28,00,09,12.20
2012,06,28,00,10,12.20
2012,06,28,00,11,12.10
2012,06,28,00,12,12.10
2012,06,28,00,13,12.10
2012,06,28,00,14,12.10
2012,06,28,00,15,12.10
2012,06,28,00,16,12.00
2012,06,28,00,17,12.00
2012,06,28,00,18,12.00
2012,06,28,00,19,12.00
2012,06,28,00,20,12.00
2012,06,28,00,21,11.90
2012,06,28,00,22,11.90
2012,06,28,00,23,11.90
2012,06,28,00,24,11.90
2012,06,28,00,25,11.90
2012,06,28,00,26,11.90
2012,06,28,00,27,11.90
2012,06,28,00,28,11.90
2012,06,28,00,29,11.90
2012,06,28,00,30,11.90
2012,06,28,00,31,11.90
2012,06,28,00,32,11.90
2012,06,28,00,33,11.90
2012,06,28,00,34,11.90
2012,06,28,00,35,11.90
2012,06,28,00,36,11.80
2012,06,28,00,37,11.80
2012,06,28,00,38,11.90
2012,06,28,00,39,11.90
2012,06,28,00,40,11.90
2012,06,28,00,41,11.90
2012,06,28,00,42,11.90
2012,06,28,00,43,11.90
2012,06,28,00,44,11.90
2012,06,28,00,45,11.90
2012,06,28,00,46,11.90
2012,06,28,00,47,11.90
2012,06,28,00,48,11.90
2012,06,28,00,49,11.80
2012,06,28,00,50,11.80
2012,06,28,00,51,11.80
2012,06,28,00,52,11.80
2012,06,28,00,53,11.80
2012,06,28,00,54,11.80
2012,06,28,00,55,11.80
2012,06,28,00,56,11.80
2012,06,28,00,57,11.80
2012,06,28,00,58,11.80
2012,06,28,00,59,11.80
2012,06,28,01,00,11.80
2012,06,28,01,01,11.80
2012,06,28,01,02,11.80
2012,06,28,01,03,11.70
2012,06,28,01,04,11.70
2012,06,28,01,05,11.60
2012,06,28,01,06,11.60
2012,06,28,01,07,11.60
2012,06,28,01,08,11.60
2012,06,28,01,09,11.60
2012,06,28,01,10,11.60
2012,06,28,01,11,11.60
2012,06,28,01,12,11.60
2012,06,28,01,13,11.50
2012,06,28,01,14,11.40
2012,06,28,01,15,11.40
2012,06,28,01,16,11.40
2012,06,28,01,17,11.40
2012,06,28,01,18,11.40
2012,06,28,01,19,11.40
2012,06,28,01,20,11.40
2012,06,28,01,21,11.40
2012,06,28,01,22,11.40
2012,06,28,01,23,11.30
2012,06,28,01,24,11.30
2012,06,28,01,25,11.30
2012,06,28,01,26,11.20
2012,06,28,01,27,11.20
2012,06,28,01,28,11.20
2012,06,28,01,29,11.20
2012,06,28,01,30,11.20
2012,06,28,01,31,11.10
2012,06,28,01,32,11.10
2012,06,28,01,33,11.10
2012,06,28,01,34,11.10
2012,06,28,01,35,11.10
2012,06,28,01,36,11.10
2012,06,28,01,37,11.10
2012,06,28,01,38,11.10
2012,06,28,01,39,11.10
2012,06,28,01,40,11.10
2012,06,28,01,41,11.10
2012,06,28,01,42,11.10
2012,06,28,01,43,11.00
2012,06,28,01,44,10.90
2012,06,28,01,45,10.90
2012,06,28,01,46,10.90
2012,06,28,01,47,10.90
2012,06,28,01,48,10.90
2012,06,28,01,49,10.90
2012,06,28,01,50,10.90
2012,06,28,01,51,10.90
2012,06,28,01,52,10.90
2012,06,28,01,53,10.80
2012,06,28,01,54,10.80
2012,06,28,01,55,10.80
2012,06,28,01,56,10.90
2012,06,28,01,57,10.90
2012,06,28,01,58,10.90
2012,06,28,01,59,10.90
2012,06,28,02,00,10.90
2012,06,28,02,01,10.90
2012,06,28,02,02,10.90
2012,06,28,02,03,10.90
2012,06,28,02,04,10.90
2012,06,28,02,05,10.90
2012,06,28,02,06,10.90
2012,06,28,02,07,10.90
2012,06,28,02,08,10.90
2012,06,28,02,09,10.90
2012,06,28,02,10,10.90
2012,06,28,02,11,10.90
2012,06,28,02,12,10.90
2012,06,28,02,13,10.90
2012,06,28,02,14,10.90
2012,06,28,02,15,10.90
2012,06,28,02,16,10.90
2012,06,28,02,17,10.90
2012,06,28,02,18,10.90
2012,06,28,02,19,10.90
2012,06,28,02,20,10.90
2012,06,28,02,21,10.80
2012,06,28,02,22,10.80
2012,06,28,02,23,10.80
2012,06,28,02,24,10.70
2012,06,28,02,25,10.70
2012,06,28,02,26,10.70
2012,06,28,02,27,10.70
2012,06,28,02,28,10.60
2012,06,28,02,29,10.60
2012,06,28,02,30,10.60
2012,06,28,02,31,10.60
2012,06,28,02,32,10.60
2012,06,28,02,33,10.60
2012,06,28,02,34,10.60
2012,06,28,02,35,10.60
2012,06,28,02,36,10.50
2012,06,28,02,37,10.40
2012,06,28,02,38,10.40
2012,06,28,02,39,10.40
2012,06,28,02,40,10.40
2012,06,28,02,41,10.40
2012,06,28,02,42,10.40
2012,06,28,02,43,10.40
2012,06,28,02,44,10.40
2012,06,28,02,45,10.40
2012,06,28,02,46,10.40
2012,06,28,02,47,10.40
2012,06,28,02,48,10.40
2012,06,28,02,49,10.40
2012,06,28,02,50,10.30
2012,06,28,02,51,10.30
2012,06,28,02,52,10.30
2012,06,28,02,53,10.30
2012,06,28,02,54,10.30
2012,06,28,02,55,10.30
2012,06,28,02,56,10.30
2012,06,28,02,57,10.30
2012,06,28,02,58,10.30
2012,06,28,02,59,10.30
2012,06,28,03,00,10.30
2012,06,28,03,01,10.30
2012,06,28,03,02,10.30
2012,06,28,03,03,10.40
2012,06,28,03,04,10.40
2012,06,28,03,05,10.40
2012,06,28,03,06,10.40
2012,06,28,03,07,10.40
2012,06,28,03,08,10.40
2012,06,28,03,09,10.40
2012,06,28,03,10,10.40
2012,06,28,03,11,10.40
2012,06,28,03,12,10.40
2012,06,28,03,13,10.40
2012,06,28,03,14,10.40
2012,06,28,03,15,10.40
2012,06,28,03,16,10.40
2012,06,28,03,17,10.30
2012,06,28,03,18,10.30
2012,06,28,03,19,10.30
2012,06,28,03,20,10.30
2012,06,28,03,21,10.30
2012,06,28,03,22,10.20
2012,06,28,03,23,10.20
2012,06,28,03,24,10.20
2012,06,28,03,25,10.20
2012,06,28,03,26,10.20
2012,06,28,03,27,10.10
2012,06,28,03,28,10.10
2012,06,28,03,29,10.10
2012,06,28,03,30,10.10
2012,06,28,03,31,10.10
2012,06,28,03,32,10.10
2012,06,28,03,33,10.10
2012,06,28,03,34,10.10
2012,06,28,03,35,10.10
2012,06,28,03,36,10.10
2012,06,28,03,37,10.10
2012,06,28,03,38,10.10
2012,06,28,03,39,10.10
2012,06,28,03,40,10.20
2012,06,28,03,41,10.20
2012,06,28,03,42,10.20
2012,06,28,03,43,10.20
2012,06,28,03,44,10.20
2012,06,28,03,45,10.20
2012,06,28,03,46,10.20
2012,06,28,03,47,10.20
2012,06,28,03,48,10.20
2012,06,28,03,49,10.20
2012,06,28,03,50,10.20
2012,06,28,03,51,10.20
2012,06,28,03,52,10.20
2012,06,28,03,53,10.20
2012,06,28,03,54,10.20
2012,06,28,03,55,10.20
2012,06,28,03,56,10.20
2012,06,28,03,57,10.20
2012,06,28,03,58,10.20
2012,06,28,03,59,10.20
2012,06,28,04,00,10.20
2012,06,28,04,01,10.20
2012,06,28,04,02,10.20
2012,06,28,04,03,10.20
2012,06,28,04,04,10.20
2012,06,28,04,05,10.10
2012,06,28,04,06,10.10
2012,06,28,04,07,10.10
2012,06,28,04,08,10.10
2012,06,28,04,09,10.10
2012,06,28,04,10,10.10
2012,06,28,04,11,10.10
2012,06,28,04,12,10.10
2012,06,28,04,13,10.20
2012,06,28,04,14,10.20
2012,06,28,04,15,10.20
2012,06,28,04,16,10.20
2012,06,28,04,17,10.10
2012,06,28,04,18,10.10
2012,06,28,04,19,10.10
2012,06,28,04,20,10.10
2012,06,28,04,21,10.10
2012,06,28,04,22,10.10
2012,06,28,04,23,10.10
2012,06,28,04,24,10.10
2012,06,28,04,25,10.10
2012,06,28,04,26,10.10
2012,06,28,04,27,10.10
2012,06,28,04,28,10.10
2012,06,28,04,29,10.10
2012,06,28,04,30,10.10
2012,06,28,04,31,10.00
2012,06,28,04,32,9.90
2012,06,28,04,33,9.90
2012,06,28,04,34,9.90
2012,06,28,04,35,9.90
2012,06,28,04,36,9.90
2012,06,28,04,37,9.90
2012,06,28,04,38,9.90
2012,06,28,04,39,9.90
2012,06,28,04,40,9.90
2012,06,28,04,41,9.90
2012,06,28,04,42,9.80
2012,06,28,04,43,9.80
2012,06,28,04,44,9.80
2012,06,28,04,45,9.80
2012,06,28,04,46,9.80
2012,06,28,04,47,9.70
2012,06,28,04,48,9.70
2012,06,28,04,49,9.70
2012,06,28,04,50,9.70
2012,06,28,04,51,9.70
2012,06,28,04,52,9.70
2012,06,28,04,53,9.80
2012,06,28,04,54,9.80
2012,06,28,04,55,9.80
2012,06,28,04,56,9.80
2012,06,28,04,57,9.80
2012,06,28,04,58,9.80
2012,06,28,04,59,9.80
2012,06,28,05,00,9.80
2012,06,28,05,01,9.80
2012,06,28,05,02,9.80
2012,06,28,05,03,9.80
2012,06,28,05,04,9.80
2012,06,28,05,05,9.80
2012,06,28,05,06,9.80
2012,06,28,05,07,9.80
2012,06,28,05,08,9.80
2012,06,28,05,09,9.80
2012,06,28,05,10,9.80
2012,06,28,05,11,9.80
2012,06,28,05,12,9.80
2012,06,28,05,13,9.80
2012,06,28,05,14,9.70
2012,06,28,05,15,9.70
2012,06,28,05,16,9.70
2012,06,28,05,17,9.70
2012,06,28,05,18,9.70
2012,06,28,05,19,9.70
2012,06,28,05,20,9.70
2012,06,28,05,21,9.70
2012,06,28,05,22,9.70
2012,06,28,05,23,9.70
2012,06,28,05,24,9.70
2012,06,28,05,25,9.70
2012,06,28,05,26,9.70
2012,06,28,05,27,9.70
2012,06,28,05,28,9.70
2012,06,28,05,29,9.70
2012,06,28,05,30,9.70
2012,06,28,05,31,9.70
2012,06,28,05,32,9.70
2012,06,28,05,33,9.70
2012,06,28,05,34,9.60
2012,06,28,05,35,9.60
2012,06,28,05,36,9.60
2012,06,28,05,37,9.60
2012,06,28,05,38,9.60
2012,06,28,05,39,9.60
2012,06,28,05,40,9.60
2012,06,28,05,41,9.60
2012,06,28,05,42,9.70
2012,06,28,05,43,9.70
2012,06,28,05,44,9.70
2012,06,28,05,45,9.70
2012,06,28,05,46,9.70
2012,06,28,05,47,9.70
2012,06,28,05,48,9.70
2012,06,28,05,49,9.70
2012,06,28,05,50,9.70
2012,06,28,05,51,9.70
2012,06,28,05,52,9.70
2012,06,28,05,53,9.70
2012,06,28,05,54,9.70
2012,06,28,05,55,9.70
2012,06,28,05,56,9.70
2012,06,28,05,57,9.70
2012,06,28,05,58,9.70
2012,06,28,05,59,9.70
2012,06,28,06,00,9.70
2012,06,28,06,01,9.70
2012,06,28,06,02,9.70
2012,06,28,06,03,9.70
2012,06,28,06,04,9.70
2012,06,28,06,05,9.70
2012,06,28,06,06,9.70
2012,06,28,06,07,9.70
2012,06,28,06,08,9.70
2012,06,28,06,09,9.70
2012,06,28,06,10,9.70
2012,06,28,06,11,9.70
2012,06,28,06,12,9.70
2012,06,28,06,13,9.80
2012,06,28,06,14,9.80
2012,06,28,06,15,9.80
2012,06,28,06,16,9.80
2012,06,28,06,17,9.90
2012,06,28,06,18,9.90
2012,06,28,06,19,9.90
2012,06,28,06,20,9.90
2012,06,28,06,21,9.90
2012,06,28,06,22,9.90
2012,06,28,06,23,9.90
2012,06,28,06,24,9.90
2012,06,28,06,25,10.00
2012,06,28,06,26,10.10
2012,06,28,06,27,10.10
2012,06,28,06,28,10.10
2012,06,28,06,29,10.10
2012,06,28,06,30,10.10
2012,06,28,06,31,10.10
2012,06,28,06,32,10.10
2012,06,28,06,33,10.20
2012,06,28,06,34,10.20
2012,06,28,06,35,10.30
2012,06,28,06,36,10.40
2012,06,28,06,37,10.40
2012,06,28,06,38,10.40
2012,06,28,06,39,10.40
2012,06,28,06,40,10.60
2012,06,28,06,41,10.60
2012,06,28,06,42,10.60
2012,06,28,06,43,10.60
2012,06,28,06,44,10.70
2012,06,28,06,45,10.80
2012,06,28,06,46,10.80
2012,06,28,06,47,10.90
2012,06,28,06,48,11.00
2012,06,28,06,49,11.10
2012,06,28,06,50,11.10
2012,06,28,06,51,11.20
2012,06,28,06,52,11.30
2012,06,28,06,53,11.40
2012,06,28,06,54,11.40
2012,06,28,06,55,11.50
2012,06,28,06,56,11.60
2012,06,28,06,57,11.60
2012,06,28,06,58,11.70
2012,06,28,06,59,11.70
2012,06,28,07,00,11.80
2012,06,28,07,01,11.80
2012,06,28,07,02,11.90
2012,06,28,07,03,11.90
2012,06,28,07,04,12.00
2012,06,28,07,05,12.10
2012,06,28,07,06,12.10
2012,06,28,07,07,12.20
2012,06,28,07,08,12.30
2012,06,28,07,09,12.40
2012,06,28,07,10,12.50
2012,06,28,07,11,12.60
2012,06,28,07,12,12.70
2012,06,28,07,13,12.80
2012,06,28,07,14,12.90
2012,06,28,07,15,13.00
2012,06,28,07,16,13.10
2012,06,28,07,17,13.20
2012,06,28,07,18,13.30
2012,06,28,07,19,13.30
2012,06,28,07,20,13.30
2012,06,28,07,21,13.30
2012,06,28,07,22,13.40
2012,06,28,07,23,13.50
2012,06,28,07,24,13.50
2012,06,28,07,25,13.60
2012,06,28,07,26,13.70
2012,06,28,07,27,13.70
2012,06,28,07,28,13.70
2012,06,28,07,29,13.80
2012,06,28,07,30,13.80
2012,06,28,07,31,13.90
2012,06,28,07,32,13.90
2012,06,28,07,33,13.90
2012,06,28,07,34,13.90
2012,06,28,07,35,13.90
2012,06,28,07,36,14.00
2012,06,28,07,37,14.00
2012,06,28,07,38,14.00
2012,06,28,07,39,14.00
2012,06,28,07,40,14.10
2012,06,28,07,41,14.10
2012,06,28,07,42,14.20
2012,06,28,07,43,14.20
2012,06,28,07,44,14.20
2012,06,28,07,45,14.20
2012,06,28,07,46,14.30
2012,06,28,07,47,14.30
2012,06,28,07,48,14.40
2012,06,28,07,49,14.40
2012,06,28,07,50,14.40
2012,06,28,07,51,14.50
2012,06,28,07,52,14.50
2012,06,28,07,53,14.60
2012,06,28,07,54,14.60
2012,06,28,07,55,14.70
2012,06,28,07,56,14.80
2012,06,28,07,57,14.80
2012,06,28,07,58,14.80
2012,06,28,07,59,14.90
2012,06,28,08,00,14.90
2012,06,28,08,01,15.00
2012,06,28,08,02,15.00
2012,06,28,08,03,15.10
2012,06,28,08,04,15.10
2012,06,28,08,05,15.20
2012,06,28,08,06,15.20
2012,06,28,08,07,15.30
2012,06,28,08,08,15.30
2012,06,28,08,09,15.40
2012,06,28,08,10,15.40
2012,06,28,08,11,15.50
2012,06,28,08,12,15.50
2012,06,28,08,13,15.50
2012,06,28,08,14,15.60
2012,06,28,08,15,15.60
2012,06,28,08,16,15.70
2012,06,28,08,17,15.70
2012,06,28,08,18,15.70
2012,06,28,08,19,15.80
2012,06,28,08,20,15.80
2012,06,28,08,21,15.80
2012,06,28,08,22,15.80
2012,06,28,08,23,15.80
2012,06,28,08,24,15.80
2012,06,28,08,25,15.90
2012,06,28,08,26,15.90
2012,06,28,08,27,16.10
2012,06,28,08,28,16.10
2012,06,28,08,29,16.10
2012,06,28,08,30,16.10
2012,06,28,08,31,16.20
2012,06,28,08,32,16.20
2012,06,28,08,33,16.20
2012,06,28,08,34,16.30
2012,06,28,08,35,16.30
2012,06,28,08,36,16.40
2012,06,28,08,37,16.40
2012,06,28,08,38,16.40
2012,06,28,08,39,16.50
2012,06,28,08,40,16.60
2012,06,28,08,41,16.60
2012,06,28,08,42,16.70
2012,06,28,08,43,16.70
2012,06,28,08,44,16.70
2012,06,28,08,45,16.70
2012,06,28,08,46,16.70
2012,06,28,08,47,16.80
2012,06,28,08,48,16.90
2012,06,28,08,49,16.90
2012,06,28,08,50,16.90
2012,06,28,08,51,17.00
2012,06,28,08,52,17.00
2012,06,28,08,53,17.00
2012,06,28,08,54,17.00
2012,06,28,08,55,17.10
2012,06,28,08,56,17.10
2012,06,28,08,57,17.00
2012,06,28,08,58,17.00
2012,06,28,08,59,17.10
2012,06,28,09,00,17.10
2012,06,28,09,01,17.10
2012,06,28,09,02,17.10
2012,06,28,09,03,17.20
2012,06,28,09,04,17.20
2012,06,28,09,05,17.20
2012,06,28,09,06,17.20
2012,06,28,09,07,17.30
2012,06,28,09,08,17.30
2012,06,28,09,09,17.30
2012,06,28,09,10,17.40
2012,06,28,09,11,17.50
2012,06,28,09,12,17.50
2012,06,28,09,13,17.60
2012,06,28,09,14,17.60
2012,06,28,09,15,17.70
2012,06,28,09,16,17.70
2012,06,28,09,17,17.80
2012,06,28,09,18,17.80
2012,06,28,09,19,17.80
2012,06,28,09,20,17.90
2012,06,28,09,21,18.00
2012,06,28,09,22,18.10
2012,06,28,09,23,18.20
2012,06,28,09,24,18.20
2012,06,28,09,25,18.20
2012,06,28,09,26,18.10
2012,06,28,09,27,18.00
2012,06,28,09,28,17.90
2012,06,28,09,29,17.90
2012,06,28,09,30,17.90
2012,06,28,09,31,17.80
2012,06,28,09,32,17.70
2012,06,28,09,33,17.50
2012,06,28,09,34,17.30
2012,06,28,09,35,17.30
2012,06,28,09,36,17.30
2012,06,28,09,37,17.30
2012,06,28,09,38,17.30
2012,06,28,09,39,17.10
2012,06,28,09,40,16.90
2012,06,28,09,41,16.60
2012,06,28,09,42,16.30
2012,06,28,09,43,16.10
2012,06,28,09,44,16.10
2012,06,28,09,45,15.90
2012,06,28,09,46,15.80
2012,06,28,09,47,15.70
2012,06,28,09,48,15.70
2012,06,28,09,49,15.60
2012,06,28,09,50,15.60
2012,06,28,09,51,15.60
2012,06,28,09,52,15.60
2012,06,28,09,53,15.60
2012,06,28,09,54,15.50
2012,06,28,09,55,15.50
2012,06,28,09,56,15.40
2012,06,28,09,57,15.50
2012,06,28,09,58,15.50
2012,06,28,09,59,15.60
2012,06,28,10,00,15.70
2012,06,28,10,01,15.80
2012,06,28,10,02,15.80
2012,06,28,10,03,15.80
2012,06,28,10,04,15.80
2012,06,28,10,05,15.80
2012,06,28,10,06,15.90
2012,06,28,10,07,15.90
2012,06,28,10,08,16.00
2012,06,28,10,09,16.10
2012,06,28,10,10,16.10
2012,06,28,10,11,16.10
2012,06,28,10,12,16.10
2012,06,28,10,13,16.10
2012,06,28,10,14,16.10
2012,06,28,10,15,16.10
2012,06,28,10,16,16.10
2012,06,28,10,17,16.10
2012,06,28,10,18,16.10
2012,06,28,10,19,16.10
2012,06,28,10,20,16.10
2012,06,28,10,21,16.10
2012,06,28,10,22,16.10
2012,06,28,10,23,16.20
2012,06,28,10,24,16.20
2012,06,28,10,25,16.30
2012,06,28,10,26,16.30
2012,06,28,10,27,16.30
2012,06,28,10,28,16.40
2012,06,28,10,29,16.40
2012,06,28,10,30,16.40
2012,06,28,10,31,16.40
2012,06,28,10,32,16.40
2012,06,28,10,33,16.40
2012,06,28,10,34,16.50
2012,06,28,10,35,16.60
2012,06,28,10,36,16.60
2012,06,28,10,37,16.60
2012,06,28,10,38,16.60
2012,06,28,10,39,16.60
2012,06,28,10,40,16.60
2012,06,28,10,41,16.50
2012,06,28,10,42,16.40
2012,06,28,10,43,16.40
2012,06,28,10,44,16.30
2012,06,28,10,45,16.30
2012,06,28,10,46,16.30
2012,06,28,10,47,16.30
2012,06,28,10,48,16.30
2012,06,28,10,49,16.40
2012,06,28,10,50,16.40
2012,06,28,10,51,16.40
2012,06,28,10,52,16.40
2012,06,28,10,53,16.40
2012,06,28,10,54,16.40
2012,06,28,10,55,16.40
2012,06,28,10,56,16.40
2012,06,28,10,57,16.40
2012,06,28,10,58,16.40
2012,06,28,10,59,16.50
2012,06,28,11,00,16.50
2012,06,28,11,01,16.40
2012,06,28,11,02,16.40
2012,06,28,11,03,16.40
2012,06,28,11,04,16.40
2012,06,28,11,05,16.40
2012,06,28,11,06,16.40
2012,06,28,11,07,16.30
2012,06,28,11,08,16.30
2012,06,28,11,09,16.30
2012,06,28,11,10,16.30
2012,06,28,11,11,16.30
2012,06,28,11,12,16.30
2012,06,28,11,13,16.40
2012,06,28,11,14,16.40
2012,06,28,11,15,16.40
2012,06,28,11,16,16.40
2012,06,28,11,17,16.50
2012,06,28,11,18,16.60
2012,06,28,11,19,16.50
2012,06,28,11,20,16.40
2012,06,28,11,21,16.40
2012,06,28,11,22,16.40
2012,06,28,11,23,16.40
2012,06,28,11,24,16.40
2012,06,28,11,25,16.40
2012,06,28,11,26,16.40
2012,06,28,11,27,16.40
2012,06,28,11,28,16.40
2012,06,28,11,29,16.30
2012,06,28,11,30,16.20
2012,06,28,11,31,16.20
2012,06,28,11,32,16.10
2012,06,28,11,33,16.10
2012,06,28,11,34,16.10
2012,06,28,11,35,16.10
2012,06,28,11,36,16.00
2012,06,28,11,37,16.00
2012,06,28,11,38,16.10
2012,06,28,11,39,16.10
2012,06,28,11,40,16.10
2012,06,28,11,41,16.10
2012,06,28,11,42,16.10
2012,06,28,11,43,16.20
2012,06,28,11,44,16.30
2012,06,28,11,45,16.40
2012,06,28,11,46,16.40
2012,06,28,11,47,16.40
2012,06,28,11,48,16.30
2012,06,28,11,49,16.30
2012,06,28,11,50,16.30
2012,06,28,11,51,16.30
2012,06,28,11,52,16.30
2012,06,28,11,53,16.30
2012,06,28,11,54,16.30
2012,06,28,11,55,16.30
2012,06,28,11,56,16.30
2012,06,28,11,57,16.30
2012,06,28,11,58,16.30
2012,06,28,11,59,16.40
2012,06,28,12,00,16.30
2012,06,28,12,01,16.20
2012,06,28,12,02,16.20
2012,06,28,12,03,16.10
2012,06,28,12,04,16.10
2012,06,28,12,05,16.20
2012,06,28,12,06,16.20
2012,06,28,12,07,16.20
2012,06,28,12,08,16.30
2012,06,28,12,09,16.30
2012,06,28,12,10,16.30
2012,06,28,12,11,16.30
2012,06,28,12,12,16.30
2012,06,28,12,13,16.30
2012,06,28,12,14,16.30
2012,06,28,12,15,16.20
2012,06,28,12,16,16.20
2012,06,28,12,17,16.20
2012,06,28,12,18,16.20
2012,06,28,12,19,16.10
2012,06,28,12,20,16.10
2012,06,28,12,21,16.10
2012,06,28,12,22,16.00
2012,06,28,12,23,15.90
2012,06,28,12,24,15.90
2012,06,28,12,25,15.80
2012,06,28,12,26,15.80
2012,06,28,12,27,15.80
2012,06,28,12,28,15.80
2012,06,28,12,29,15.80
2012,06,28,12,30,15.80
2012,06,28,12,31,15.80
2012,06,28,12,32,15.80
2012,06,28,12,33,15.70
2012,06,28,12,34,15.70
2012,06,28,12,35,15.70
2012,06,28,12,36,15.70
2012,06,28,12,37,15.80
2012,06,28,12,38,15.80
2012,06,28,12,39,15.80
2012,06,28,12,40,15.80
2012,06,28,12,41,15.90
2012,06,28,12,42,15.90
2012,06,28,12,43,16.00
2012,06,28,12,44,16.10
2012,06,28,12,45,16.10
2012,06,28,12,46,16.10
2012,06,28,12,47,16.10
2012,06,28,12,48,16.10
2012,06,28,12,49,16.10
2012,06,28,12,50,16.20
2012,06,28,12,51,16.10
2012,06,28,12,52,16.10
2012,06,28,12,53,16.00
2012,06,28,12,54,15.90
2012,06,28,12,55,15.80
2012,06,28,12,56,15.80
2012,06,28,12,57,15.70
2012,06,28,12,58,15.70
2012,06,28,12,59,15.60
2012,06,28,13,00,15.60
2012,06,28,13,01,15.60
2012,06,28,13,02,15.60
2012,06,28,13,03,15.60
2012,06,28,13,04,15.60
2012,06,28,13,05,15.70
2012,06,28,13,06,15.70
2012,06,28,13,07,15.80
2012,06,28,13,08,15.80
2012,06,28,13,09,15.80
2012,06,28,13,10,15.80
2012,06,28,13,11,15.80
2012,06,28,13,12,15.80
2012,06,28,13,13,15.80
2012,06,28,13,14,15.80
2012,06,28,13,15,15.80
2012,06,28,13,16,15.80
2012,06,28,13,17,15.80
2012,06,28,13,18,15.80
2012,06,28,13,19,15.80
2012,06,28,13,20,15.80
2012,06,28,13,21,15.80
2012,06,28,13,22,15.80
2012,06,28,13,23,15.90
2012,06,28,13,24,15.90
2012,06,28,13,25,15.90
2012,06,28,13,26,15.90
2012,06,28,13,27,15.90
2012,06,28,13,28,15.90
2012,06,28,13,29,15.90
2012,06,28,13,30,15.90
2012,06,28,13,31,15.90
2012,06,28,13,32,15.80
2012,06,28,13,33,15.80
2012,06,28,13,34,15.80
2012,06,28,13,35,15.80
2012,06,28,13,36,15.80
2012,06,28,13,37,15.80
2012,06,28,13,38,15.80
2012,06,28,13,39,15.80
2012,06,28,13,40,15.80
2012,06,28,13,41,15.80
2012,06,28,13,42,15.80
2012,06,28,13,43,15.80
2012,06,28,13,44,15.80
2012,06,28,13,45,15.80
2012,06,28,13,46,15.80
2012,06,28,13,47,15.80
2012,06,28,13,48,15.70
2012,06,28,13,49,15.70
2012,06,28,13,50,15.60
2012,06,28,13,51,15.50
2012,06,28,13,52,15.40
2012,06,28,13,53,15.40
2012,06,28,13,54,15.40
2012,06,28,13,55,15.50
2012,06,28,13,56,15.50
2012,06,28,13,57,15.50
2012,06,28,13,58,15.60
2012,06,28,13,59,15.60
2012,06,28,14,00,15.50
2012,06,28,14,01,15.50
2012,06,28,14,02,15.50
2012,06,28,14,03,15.60
2012,06,28,14,04,15.60
2012,06,28,14,05,15.70
2012,06,28,14,06,15.80
2012,06,28,14,07,15.80
2012,06,28,14,08,15.90
2012,06,28,14,09,15.90
2012,06,28,14,10,16.00
2012,06,28,14,11,16.10
2012,06,28,14,12,16.10
2012,06,28,14,13,16.10
2012,06,28,14,14,16.10
2012,06,28,14,15,16.10
2012,06,28,14,16,16.10
2012,06,28,14,17,16.10
2012,06,28,14,18,16.10
2012,06,28,14,19,16.10
2012,06,28,14,20,16.10
2012,06,28,14,21,16.10
2012,06,28,14,22,16.10
2012,06,28,14,23,16.10
2012,06,28,14,24,16.10
2012,06,28,14,25,16.10
2012,06,28,14,26,16.10
2012,06,28,14,27,16.10
2012,06,28,14,28,16.10
2012,06,28,14,29,16.10
2012,06,28,14,30,16.10
2012,06,28,14,31,16.20
2012,06,28,14,32,16.20
2012,06,28,14,33,16.30
2012,06,28,14,34,16.40
2012,06,28,14,35,16.40
2012,06,28,14,36,16.40
2012,06,28,14,37,16.50
2012,06,28,14,38,16.60
2012,06,28,14,39,16.60
2012,06,28,14,40,16.60
2012,06,28,14,41,16.70
2012,06,28,14,42,16.70
2012,06,28,14,43,16.70
2012,06,28,14,44,16.80
2012,06,28,14,45,16.80
2012,06,28,14,46,16.80
2012,06,28,14,47,16.90
2012,06,28,14,48,16.90
2012,06,28,14,49,16.90
2012,06,28,14,50,16.90
2012,06,28,14,51,16.90
2012,06,28,14,52,17.00
2012,06,28,14,53,17.00
2012,06,28,14,54,17.10
2012,06,28,14,55,17.10
2012,06,28,14,56,17.20
2012,06,28,14,57,17.20
2012,06,28,14,58,17.20
2012,06,28,14,59,17.20
2012,06,28,15,00,17.30
2012,06,28,15,01,17.20
2012,06,28,15,02,17.20
2012,06,28,15,03,17.20
2012,06,28,15,04,17.20
2012,06,28,15,05,17.10
2012,06,28,15,06,17.10
2012,06,28,15,07,17.10
2012,06,28,15,08,17.00
2012,06,28,15,09,16.90
2012,06,28,15,10,16.90
2012,06,28,15,11,16.80
2012,06,28,15,12,16.80
2012,06,28,15,13,16.80
2012,06,28,15,14,16.80
2012,06,28,15,15,16.80
2012,06,28,15,16,16.80
2012,06,28,15,17,16.80
2012,06,28,15,18,16.80
2012,06,28,15,19,16.80
2012,06,28,15,20,16.80
2012,06,28,15,21,16.90
2012,06,28,15,22,16.90
2012,06,28,15,23,17.00
2012,06,28,15,24,17.00
2012,06,28,15,25,17.00
2012,06,28,15,26,17.00
2012,06,28,15,27,17.10
2012,06,28,15,28,17.10
2012,06,28,15,29,17.10
2012,06,28,15,30,17.20
2012,06,28,15,31,17.20
2012,06,28,15,32,17.20
2012,06,28,15,33,17.20
2012,06,28,15,34,17.20
2012,06,28,15,35,17.20
2012,06,28,15,36,17.20
2012,06,28,15,37,17.20
2012,06,28,15,38,17.20
2012,06,28,15,39,17.30
2012,06,28,15,40,17.30
2012,06,28,15,41,17.30
2012,06,28,15,42,17.30
2012,06,28,15,43,17.20
2012,06,28,15,44,17.20
2012,06,28,15,45,17.20
2012,06,28,15,46,17.20
2012,06,28,15,47,17.20
2012,06,28,15,48,17.20
2012,06,28,15,49,17.30
2012,06,28,15,50,17.30
2012,06,28,15,51,17.30
2012,06,28,15,52,17.30
2012,06,28,15,53,17.30
2012,06,28,15,54,17.40
2012,06,28,15,55,17.50
2012,06,28,15,56,17.50
2012,06,28,15,57,17.50
2012,06,28,15,58,17.60
2012,06,28,15,59,17.60
2012,06,28,16,00,17.60
2012,06,28,16,01,17.60
2012,06,28,16,02,17.70
2012,06,28,16,03,17.70
2012,06,28,16,04,17.60
2012,06,28,16,05,17.60
2012,06,28,16,06,17.50
2012,06,28,16,07,17.40
2012,06,28,16,08,17.30
2012,06,28,16,09,17.10
2012,06,28,16,10,16.90
2012,06,28,16,11,16.70
2012,06,28,16,12,16.60
2012,06,28,16,13,16.50
2012,06,28,16,14,16.40
2012,06,28,16,15,16.30
2012,06,28,16,16,16.20
2012,06,28,16,17,16.20
2012,06,28,16,18,16.10
2012,06,28,16,19,16.10
2012,06,28,16,20,16.10
2012,06,28,16,21,16.10
2012,06,28,16,22,16.10
2012,06,28,16,23,16.10
2012,06,28,16,24,16.10
2012,06,28,16,25,16.10
2012,06,28,16,26,16.20
2012,06,28,16,27,16.20
2012,06,28,16,28,16.20
2012,06,28,16,29,16.20
2012,06,28,16,30,16.20
2012,06,28,16,31,16.20
2012,06,28,16,32,16.20
2012,06,28,16,33,16.30
2012,06,28,16,34,16.30
2012,06,28,16,35,16.40
2012,06,28,16,36,16.40
2012,06,28,16,37,16.40
2012,06,28,16,38,16.40
2012,06,28,16,39,16.40
2012,06,28,16,40,16.40
2012,06,28,16,41,16.50
2012,06,28,16,42,16.60
2012,06,28,16,43,16.60
2012,06,28,16,44,16.60
2012,06,28,16,45,16.60
2012,06,28,16,46,16.60
2012,06,28,16,47,16.60
2012,06,28,16,48,16.60
2012,06,28,16,49,16.60
2012,06,28,16,50,16.60
2012,06,28,16,51,16.70
2012,06,28,16,52,16.70
2012,06,28,16,53,16.70
2012,06,28,16,54,16.70
2012,06,28,16,55,16.70
2012,06,28,16,56,16.70
2012,06,28,16,57,16.70
2012,06,28,16,58,16.70
2012,06,28,16,59,16.70
2012,06,28,17,00,16.70
2012,06,28,17,01,16.70
2012,06,28,17,02,16.70
2012,06,28,17,03,16.70
2012,06,28,17,04,16.70
2012,06,28,17,05,16.70
2012,06,28,17,06,16.70
2012,06,28,17,07,16.70
2012,06,28,17,08,16.70
2012,06,28,17,09,16.70
2012,06,28,17,10,16.70
2012,06,28,17,11,16.70
2012,06,28,17,12,16.70
2012,06,28,17,13,16.70
2012,06,28,17,14,16.70
2012,06,28,17,15,16.70
2012,06,28,17,16,16.70
2012,06,28,17,17,16.70
2012,06,28,17,18,16.70
2012,06,28,17,19,16.70
2012,06,28,17,20,16.70
2012,06,28,17,21,16.70
2012,06,28,17,22,16.70
2012,06,28,17,23,16.70
2012,06,28,17,24,16.70